﻿_id,日時,平均風速(m/s),平均風向,最大瞬間風速(m/s),最大風速時風向,気温(℃),湿度(%),10分間移動積算雨量(mm),1時間移動積算雨量(mm),日雨量(mm),累計雨量(mm)
1,2024-02-26T00:00:00,1,北北東,4.5,西北西,5.3,,0,0,19.5,19.5
2,2024-02-26T00:01:00,1,北北東,4.5,西北西,5.2,,0,0,0,19.5
3,2024-02-26T00:02:00,0.9,北北東,4.5,西北西,5,,0,0,0,19.5
4,2024-02-26T00:03:00,0.9,北東,4.5,西北西,4.9,,0,0,0,19.5
5,2024-02-26T00:04:00,0.9,北北東,4.5,西北西,4.9,,0,0,0,19.5
6,2024-02-26T00:05:00,0.9,北北東,4.5,西北西,4.9,,0,0,0,19.5
7,2024-02-26T00:06:00,0.9,北東,4.5,西北西,4.8,,0,0,0,19.5
8,2024-02-26T00:07:00,0.8,北東,4.5,西北西,4.9,,0,0,0,19.5
9,2024-02-26T00:08:00,0.9,北東,4.5,西北西,5.2,,0,0,0,19.5
10,2024-02-26T00:09:00,0.7,北東,1.7,北北東,5.4,,0,0,0,19.5
11,2024-02-26T00:10:00,0.7,北北東,1.7,北北東,5.2,,0,0,0,19.5
12,2024-02-26T00:11:00,0.6,北北東,1.7,北北東,5.2,,0,0,0,19.5
13,2024-02-26T00:12:00,0.7,北北東,1.7,北北東,4.9,,0,0,0,19.5
14,2024-02-26T00:13:00,0.7,北北東,1.7,北北東,4.7,,0,0,0,19.5
15,2024-02-26T00:14:00,0.7,北北東,1.7,北北東,4.6,,0,0,0,19.5
16,2024-02-26T00:15:00,0.7,北北東,1.7,北北東,4.5,,0,0,0,19.5
17,2024-02-26T00:16:00,0.7,北北東,1.7,北北東,4.5,,0,0,0,19.5
18,2024-02-26T00:17:00,0.6,北北東,1.7,北北東,4.7,,0,0,0,19.5
19,2024-02-26T00:18:00,0.6,北北東,1.6,北西,4.9,,0,0,0,19.5
20,2024-02-26T00:19:00,0.7,北東,1.6,北西,4.8,,0,0,0,19.5
21,2024-02-26T00:20:00,0.7,北東,2,北,4.7,,0,0,0,19.5
22,2024-02-26T00:21:00,0.8,北東,4.6,北西,4.8,,0,0,0,19.5
23,2024-02-26T00:22:00,0.9,北北東,4.6,北西,4.8,,0,0,0,19.5
24,2024-02-26T00:23:00,1,北北東,4.6,北西,4.8,,0,0,0,19.5
25,2024-02-26T00:24:00,1,北北東,4.6,北西,4.8,,0,0,0,19.5
26,2024-02-26T00:25:00,1,北北東,4.6,北西,5,,0,0,0,19.5
27,2024-02-26T00:26:00,1.2,北北東,4.7,西北西,5.2,,0,0,0,19.5
28,2024-02-26T00:27:00,1.3,北北東,4.7,西北西,5.1,,0,0,0,19.5
29,2024-02-26T00:28:00,1.4,北北東,4.7,西北西,5,,0,0,0,19.5
30,2024-02-26T00:29:00,1.5,北北東,4.7,西北西,5,,0,0,0,19.5
31,2024-02-26T00:30:00,1.5,北北東,4.7,西北西,5.2,,0,0,0,19.5
32,2024-02-26T00:31:00,1.5,北北東,6.3,西,5.2,,0,0,0,19.5
33,2024-02-26T00:32:00,1.4,北北東,6.3,西,5.2,,0,0,0,19.5
34,2024-02-26T00:33:00,1.3,北北東,6.3,西,5.2,,0,0,0,19.5
35,2024-02-26T00:34:00,1.2,北北東,6.3,西,5.3,,0,0,0,19.5
36,2024-02-26T00:35:00,1.2,北北東,6.3,西,5.3,,0,0,0,19.5
37,2024-02-26T00:36:00,1.1,北北東,6.3,西,5.2,,0,0,0,19.5
38,2024-02-26T00:37:00,1.2,北北東,6.3,西,5.3,,0,0,0,19.5
39,2024-02-26T00:38:00,1.2,北,6.3,西,5.4,,0,0,0,19.5
40,2024-02-26T00:39:00,1.2,北,6.3,西,5.5,,0,0,0,19.5
41,2024-02-26T00:40:00,1.2,北北東,6.3,西,5.6,,0,0,0,19.5
42,2024-02-26T00:41:00,1.1,北北東,3.8,北西,5.6,,0,0,0,19.5
43,2024-02-26T00:42:00,1.2,北,3.8,北西,5.4,,0,0,0,19.5
44,2024-02-26T00:43:00,1.3,北北東,3.8,北西,5.4,,0,0,0,19.5
45,2024-02-26T00:44:00,1.3,北北東,3.8,北西,5.3,,0,0,0,19.5
46,2024-02-26T00:45:00,1.3,北北東,3.8,北西,5.7,,0,0,0,19.5
47,2024-02-26T00:46:00,1.4,北北東,4.3,北西,5.6,,0,0,0,19.5
48,2024-02-26T00:47:00,1.3,北,4.3,北西,5.7,,0,0,0,19.5
49,2024-02-26T00:48:00,1.3,北,4.3,北西,5.6,,0,0,0,19.5
50,2024-02-26T00:49:00,1.3,北,4.3,北西,5.5,,0,0,0,19.5
51,2024-02-26T00:50:00,1.3,北,4.3,北西,5.5,,0,0,0,19.5
52,2024-02-26T00:51:00,1.4,北,9.4,西,5.6,,0,0,0,19.5
53,2024-02-26T00:52:00,1.4,北,9.4,西,5.7,,0,0,0,19.5
54,2024-02-26T00:53:00,1.4,北,9.4,西,5.6,,0,0,0,19.5
55,2024-02-26T00:54:00,1.6,北北西,9.4,西,5.5,,0,0,0,19.5
56,2024-02-26T00:55:00,1.7,北北西,9.4,西,5.6,,0,0,0,19.5
57,2024-02-26T00:56:00,1.6,北北西,9.4,西,5.7,,0,0,0,19.5
58,2024-02-26T00:57:00,1.6,北,9.4,西,5.5,,0,0,0,19.5
59,2024-02-26T00:58:00,1.8,北北西,9.4,西,5.7,,0,0,0,19.5
60,2024-02-26T00:59:00,1.8,北,9.4,西,5.7,,0,0,0,19.5
61,2024-02-26T01:00:00,1.7,北,9.4,西,5.5,,0,0,0,19.5
62,2024-02-26T01:01:00,1.6,北,8.1,西北西,5.4,,0,0,0,19.5
63,2024-02-26T01:02:00,1.6,北,8.1,西北西,5.3,,0,0,0,19.5
64,2024-02-26T01:03:00,1.7,北,8.1,西北西,5.3,,0,0,0,19.5
65,2024-02-26T01:04:00,1.6,北,7.9,北北西,5.3,,0,0,0,19.5
66,2024-02-26T01:05:00,1.4,北,7.9,北北西,5.1,,0,0,0,19.5
67,2024-02-26T01:06:00,1.5,北,7.9,北北西,5.2,,0,0,0,19.5
68,2024-02-26T01:07:00,1.4,北,7.9,北北西,5.4,,0,0,0,19.5
69,2024-02-26T01:08:00,1.3,北北東,8.8,北西,5.5,,0,0,0,19.5
70,2024-02-26T01:09:00,1.3,北,8.8,北西,5.6,,0,0,0,19.5
71,2024-02-26T01:10:00,1.4,北,8.8,北西,5.7,,0,0,0,19.5
72,2024-02-26T01:11:00,1.4,北,8.8,北西,5.7,,0,0,0,19.5
73,2024-02-26T01:12:00,1.6,北,8.8,北西,5.8,,0,0,0,19.5
74,2024-02-26T01:13:00,1.6,北,8.8,北西,5.7,,0,0,0,19.5
75,2024-02-26T01:14:00,1.7,北,8.8,北西,5.7,,0,0,0,19.5
76,2024-02-26T01:15:00,1.7,北,8.8,北西,5.6,,0,0,0,19.5
77,2024-02-26T01:16:00,1.8,北北西,8.8,北西,5.6,,0,0,0,19.5
78,2024-02-26T01:17:00,2,北北西,8.8,北西,5.7,,0,0,0,19.5
79,2024-02-26T01:18:00,2.2,北北西,8.1,西北西,5.7,,0,0,0,19.5
80,2024-02-26T01:19:00,2.2,北北西,8.1,西北西,5.8,,0,0,0,19.5
81,2024-02-26T01:20:00,2.4,北北西,8.1,西北西,5.7,,0,0,0,19.5
82,2024-02-26T01:21:00,2.4,北北西,8.1,西北西,5.6,,0,0,0,19.5
83,2024-02-26T01:22:00,2.2,北北西,7.7,西北西,5.5,,0,0,0,19.5
84,2024-02-26T01:23:00,2.2,北北西,7.7,西北西,5.4,,0,0,0,19.5
85,2024-02-26T01:24:00,2.3,北北西,7.7,西北西,5.4,,0,0,0,19.5
86,2024-02-26T01:25:00,2.3,北北西,7.7,西北西,5.1,,0,0,0,19.5
87,2024-02-26T01:26:00,2.2,北,7.7,西北西,4.9,,0,0,0,19.5
88,2024-02-26T01:27:00,2,北,7.7,西北西,5,,0,0,0,19.5
89,2024-02-26T01:28:00,1.7,北,6.6,西北西,5.1,,0,0,0,19.5
90,2024-02-26T01:29:00,1.6,北,5.4,北北西,5.2,,0,0,0,19.5
91,2024-02-26T01:30:00,1.4,北,5.3,北西,5.2,,0,0,0,19.5
92,2024-02-26T01:31:00,1.5,北,5.3,北西,5,,0,0,0,19.5
93,2024-02-26T01:32:00,1.4,北北西,5.3,北西,4.9,,0,0,0,19.5
94,2024-02-26T01:33:00,1.4,北,5.3,北西,5,,0,0,0,19.5
95,2024-02-26T01:34:00,1.2,北,3.5,西北西,5,,0,0,0,19.5
96,2024-02-26T01:35:00,1.2,北,3.5,西北西,4.9,,0,0,0,19.5
97,2024-02-26T01:36:00,1.2,北,3.5,西北西,5.1,,0,0,0,19.5
98,2024-02-26T01:37:00,1.2,北,3.5,西北西,5.2,,0,0,0,19.5
99,2024-02-26T01:38:00,1.2,北,3.5,西北西,5.2,,0,0,0,19.5
100,2024-02-26T01:39:00,1.1,北,2.8,北東,5.3,,0,0,0,19.5
101,2024-02-26T01:40:00,1.1,北,2.8,北東,5.3,,0,0,0,19.5
102,2024-02-26T01:41:00,1.1,北,2.8,北東,4.9,,0,0,0,19.5
103,2024-02-26T01:42:00,1.2,北北東,2.8,北東,4.7,,0,0,0,19.5
104,2024-02-26T01:43:00,1.3,北北東,3.2,北東,5,,0,0,0,19.5
105,2024-02-26T01:44:00,1.3,北北東,3.2,北東,5.3,,0,0,0,19.5
106,2024-02-26T01:45:00,1.2,北北東,3.2,北東,5.3,,0,0,0,19.5
107,2024-02-26T01:46:00,1.2,北北東,3.2,北東,5,,0,0,0,19.5
108,2024-02-26T01:47:00,1.2,北北東,3.2,北東,5.1,,0,0,0,19.5
109,2024-02-26T01:48:00,1.1,北,3.2,北東,5.2,,0,0,0,19.5
110,2024-02-26T01:49:00,1.1,北,3.2,北東,4.9,,0,0,0,19.5
111,2024-02-26T01:50:00,1.1,北北東,3.2,北東,4.8,,0,0,0,19.5
112,2024-02-26T01:51:00,1.1,北,3.2,北東,5.1,,0,0,0,19.5
113,2024-02-26T01:52:00,1.1,北,3.2,北東,5.3,,0,0,0,19.5
114,2024-02-26T01:53:00,1,北,2.8,北北東,5.3,,0,0,0,19.5
115,2024-02-26T01:54:00,1,北,2,北東,5.2,,0,0,0,19.5
116,2024-02-26T01:55:00,1,北,2,北東,4.7,,0,0,0,19.5
117,2024-02-26T01:56:00,1.1,北北東,2.5,北東,4.5,,0,0,0,19.5
118,2024-02-26T01:57:00,1.1,北北東,2.5,北東,4.6,,0,0,0,19.5
119,2024-02-26T01:58:00,1.1,北北東,2.5,北東,4.5,,0,0,0,19.5
120,2024-02-26T01:59:00,1.1,北北東,2.5,北東,4.5,,0,0,0,19.5
121,2024-02-26T02:00:00,1.2,北北東,2.5,北東,4.4,,0,0,0,19.5
122,2024-02-26T02:01:00,1.2,北北東,2.5,北東,4.3,,0,0,0,19.5
123,2024-02-26T02:02:00,1.2,北北東,2.5,北東,4.1,,0,0,0,19.5
124,2024-02-26T02:03:00,1.2,北北東,2.5,北東,4.1,,0,0,0,19.5
125,2024-02-26T02:04:00,1.2,北北東,2.5,北東,4.1,,0,0,0,19.5
126,2024-02-26T02:05:00,1.2,北北東,2.5,北東,4.1,,0,0,0,19.5
127,2024-02-26T02:06:00,1.1,北北東,2.5,北東,4.1,,0,0,0,19.5
128,2024-02-26T02:07:00,1,北,2,北東,4,,0,0,0,19.5
129,2024-02-26T02:08:00,1.1,北北東,2.2,北東,4.2,,0,0,0,19.5
130,2024-02-26T02:09:00,1.1,北北東,2.2,北東,4.2,,0,0,0,19.5
131,2024-02-26T02:10:00,1,北北東,2.2,北東,4.2,,0,0,0,19.5
132,2024-02-26T02:11:00,1,北北東,2.2,北東,4.1,,0,0,0,19.5
133,2024-02-26T02:12:00,1,北,2.2,北東,4.1,,0,0,0,19.5
134,2024-02-26T02:13:00,1,北,2.2,北東,4.3,,0,0,0,19.5
135,2024-02-26T02:14:00,1,北,2.2,北東,4.3,,0,0,0,19.5
136,2024-02-26T02:15:00,1,北,2.2,北東,4.3,,0,0,0,19.5
137,2024-02-26T02:16:00,1,北北西,2.2,北東,4.3,,0,0,0,19.5
138,2024-02-26T02:17:00,0.9,北北西,2.2,北東,4.3,,0,0,0,19.5
139,2024-02-26T02:18:00,0.8,北北西,1.8,北西,4.3,,0,0,0,19.5
140,2024-02-26T02:19:00,0.8,北西,1.8,北西,4.2,,0,0,0,19.5
141,2024-02-26T02:20:00,0.8,北北西,1.8,北西,4,,0,0,0,19.5
142,2024-02-26T02:21:00,0.8,北北西,1.8,北西,4,,0,0,0,19.5
143,2024-02-26T02:22:00,0.7,北北西,1.8,北西,3.9,,0,0,0,19.5
144,2024-02-26T02:23:00,0.7,北,1.5,北西,3.9,,0,0,0,19.5
145,2024-02-26T02:24:00,0.6,北,2,東,4.2,,0,0,0,19.5
146,2024-02-26T02:25:00,0.7,北,2.8,北北西,4.6,,0,0,0,19.5
147,2024-02-26T02:26:00,0.8,北,2.8,北北西,4.8,,0,0,0,19.5
148,2024-02-26T02:27:00,0.8,北,2.8,北北西,4.7,,0,0,0,19.5
149,2024-02-26T02:28:00,0.9,北北東,2.8,北北西,4.7,,0,0,0,19.5
150,2024-02-26T02:29:00,1,北,2.8,北北西,4.8,,0,0,0,19.5
151,2024-02-26T02:30:00,1,北,2.8,北北西,4.5,,0,0,0,19.5
152,2024-02-26T02:31:00,1.1,北,3,北西,4.4,,0,0,0,19.5
153,2024-02-26T02:32:00,1.1,北,3,北西,4.7,,0,0,0,19.5
154,2024-02-26T02:33:00,1.3,北,3.4,北東,4.8,,0,0,0,19.5
155,2024-02-26T02:34:00,1.3,北,3.4,北東,5.1,,0,0,0,19.5
156,2024-02-26T02:35:00,1.2,北,3.4,北東,4.9,,0,0,0,19.5
157,2024-02-26T02:36:00,1.2,北,3.4,北東,4.9,,0,0,0,19.5
158,2024-02-26T02:37:00,1.3,北北東,3.4,北東,4.7,,0,0,0,19.5
159,2024-02-26T02:38:00,1.3,北北東,3.4,北東,4.8,,0,0,0,19.5
160,2024-02-26T02:39:00,1.2,北北東,3.4,北東,4.6,,0,0,0,19.5
161,2024-02-26T02:40:00,1.2,北北東,3.4,北東,4.4,,0,0,0,19.5
162,2024-02-26T02:41:00,1.2,北北東,3.4,北東,4.5,,0,0,0,19.5
163,2024-02-26T02:42:00,1.2,北北東,3.4,北東,4.4,,0,0,0,19.5
164,2024-02-26T02:43:00,1.1,北北東,3,北東,4.7,,0,0,0,19.5
165,2024-02-26T02:44:00,1.1,北北東,2.7,北北西,5.2,,0,0,0,19.5
166,2024-02-26T02:45:00,1.1,北北東,2.7,北北西,5.1,,0,0,0,19.5
167,2024-02-26T02:46:00,1,北北東,2.7,北北西,5.1,,0,0,0,19.5
168,2024-02-26T02:47:00,1,北北東,2.7,北北西,5.2,,0,0,0,19.5
169,2024-02-26T02:48:00,1.1,北北東,2.7,北北西,5.3,,0,0,0,19.5
170,2024-02-26T02:49:00,1.1,北北東,2.7,北北西,5.3,,0,0,0,19.5
171,2024-02-26T02:50:00,1.1,北,2.7,北北西,5.3,,0,0,0,19.5
172,2024-02-26T02:51:00,1.1,北,2.7,北北西,5.2,,0,0,0,19.5
173,2024-02-26T02:52:00,1,北,2.7,北北西,5,,0,0,0,19.5
174,2024-02-26T02:53:00,0.9,北,2.7,北北西,5,,0,0,0,19.5
175,2024-02-26T02:54:00,0.9,北,2.7,北西,5.1,,0,0,0,19.5
176,2024-02-26T02:55:00,0.9,北,2.7,北西,5.4,,0,0,0,19.5
177,2024-02-26T02:56:00,0.9,北,2.7,北西,5.4,,0,0,0,19.5
178,2024-02-26T02:57:00,0.8,北,2.7,北西,5.2,,0,0,0,19.5
179,2024-02-26T02:58:00,0.8,北,2.7,北西,5,,0,0,0,19.5
180,2024-02-26T02:59:00,0.7,北北東,2.1,北西,4.9,,0,0,0,19.5
181,2024-02-26T03:00:00,0.6,北北東,1.7,北西,4.6,,0,0,0,19.5
182,2024-02-26T03:01:00,0.6,北北東,1.4,北西,4.6,,0,0,0,19.5
183,2024-02-26T03:02:00,0.6,北北東,1.5,北,4.6,,0,0,0,19.5
184,2024-02-26T03:03:00,0.7,北北東,1.5,北,4.7,,0,0,0,19.5
185,2024-02-26T03:04:00,0.7,北北東,1.5,北,4.9,,0,0,0,19.5
186,2024-02-26T03:05:00,0.8,北北東,2.2,北東,4.8,,0,0,0,19.5
187,2024-02-26T03:06:00,0.8,北北東,2.2,北東,5,,0,0,0,19.5
188,2024-02-26T03:07:00,0.8,北北東,2.2,北東,5,,0,0,0,19.5
189,2024-02-26T03:08:00,0.9,北北東,2.3,西北西,5,,0,0,0,19.5
190,2024-02-26T03:09:00,0.9,北,2.3,西北西,5.1,,0,0,0,19.5
191,2024-02-26T03:10:00,0.9,北,2.3,西北西,5.2,,0,0,0,19.5
192,2024-02-26T03:11:00,1,北,2.3,西北西,5.1,,0,0,0,19.5
193,2024-02-26T03:12:00,1.1,北,3.7,北西,5.2,,0,0,0,19.5
194,2024-02-26T03:13:00,1.2,北,3.7,北西,5.2,,0,0,0,19.5
195,2024-02-26T03:14:00,1.3,北北西,3.7,北西,5.3,,0,0,0,19.5
196,2024-02-26T03:15:00,1.3,北北西,3.7,北西,5,,0,0,0,19.5
197,2024-02-26T03:16:00,1.2,北北西,3.7,北西,5,,0,0,0,19.5
198,2024-02-26T03:17:00,1.3,北西,3.7,北西,5.1,,0,0,0,19.5
199,2024-02-26T03:18:00,1.3,北西,3.7,北西,5,,0,0,0,19.5
200,2024-02-26T03:19:00,1.2,北西,3.7,北西,5,,0,0,0,19.5
201,2024-02-26T03:20:00,1.4,北西,4.8,北北西,5.1,,0,0,0,19.5
202,2024-02-26T03:21:00,1.5,北西,6.3,北西,5.1,,0,0,0,19.5
203,2024-02-26T03:22:00,1.5,北西,6.3,北西,4.8,,0,0,0,19.5
204,2024-02-26T03:23:00,1.3,北北西,6.3,北西,4.6,,0,0,0,19.5
205,2024-02-26T03:24:00,1.2,北北西,6.3,北西,4.7,,0,0,0,19.5
206,2024-02-26T03:25:00,1.4,北北西,6.3,北西,4.8,,0,0,0,19.5
207,2024-02-26T03:26:00,1.5,北西,6.3,北西,5,,0,0,0,19.5
208,2024-02-26T03:27:00,1.6,北北西,6.3,北西,5,,0,0,0,19.5
209,2024-02-26T03:28:00,1.7,北北西,6.3,北西,5,,0,0,0,19.5
210,2024-02-26T03:29:00,1.9,北北西,6.3,北西,5.1,,0,0,0,19.5
211,2024-02-26T03:30:00,1.7,北北西,6.3,北西,5.1,,0,0,0,19.5
212,2024-02-26T03:31:00,1.6,北北西,4.9,北西,4.9,,0,0,0,19.5
213,2024-02-26T03:32:00,1.6,北北西,4.9,北西,4.9,,0,0,0,19.5
214,2024-02-26T03:33:00,1.8,北西,4.9,北西,4.9,,0,0,0,19.5
215,2024-02-26T03:34:00,1.9,北北西,4.9,北西,4.9,,0,0,0,19.5
216,2024-02-26T03:35:00,1.9,北北西,5.2,北西,4.9,,0,0,0,19.5
217,2024-02-26T03:36:00,1.8,北北西,5.2,北西,4.9,,0,0,0,19.5
218,2024-02-26T03:37:00,1.8,北北西,5.2,北西,4.9,,0,0,0,19.5
219,2024-02-26T03:38:00,1.6,北北西,5.2,北西,4.8,,0,0,0,19.5
220,2024-02-26T03:39:00,1.6,北西,5.2,北西,4.9,,0,0,0,19.5
221,2024-02-26T03:40:00,1.8,北西,5.2,北西,4.8,,0,0,0,19.5
222,2024-02-26T03:41:00,1.9,北西,5.2,北西,4.8,,0,0,0,19.5
223,2024-02-26T03:42:00,1.9,北西,5.2,北西,4.8,,0,0,0,19.5
224,2024-02-26T03:43:00,1.8,北西,5.2,北西,4.7,,0,0,0,19.5
225,2024-02-26T03:44:00,1.7,北西,5.2,北西,4.7,,0,0,0,19.5
226,2024-02-26T03:45:00,1.6,北西,4.5,北北西,4.6,,0,0,0,19.5
227,2024-02-26T03:46:00,1.7,北西,4.5,北北西,4.6,,0,0,0,19.5
228,2024-02-26T03:47:00,1.7,北西,4.5,北北西,4.6,,0,0,0,19.5
229,2024-02-26T03:48:00,1.7,北西,4.5,北北西,4.5,,0,0,0,19.5
230,2024-02-26T03:49:00,1.7,北西,4.5,北北西,4.5,,0,0,0,19.5
231,2024-02-26T03:50:00,1.5,北西,4.5,北北西,4.5,,0,0,0,19.5
232,2024-02-26T03:51:00,1.4,北西,3.3,北,4.4,,0,0,0,19.5
233,2024-02-26T03:52:00,1.5,北西,3.2,北西,4.5,,0,0,0,19.5
234,2024-02-26T03:53:00,1.5,北西,3.5,西北西,4.5,,0,0,0,19.5
235,2024-02-26T03:54:00,1.7,北西,5,西北西,4.5,,0,0,0,19.5
236,2024-02-26T03:55:00,1.8,北西,5,西北西,4.6,,0,0,0,19.5
237,2024-02-26T03:56:00,1.8,西北西,5,西北西,4.5,,0,0,0,19.5
238,2024-02-26T03:57:00,1.9,西北西,5,西北西,4.6,,0,0,0,19.5
239,2024-02-26T03:58:00,2,西北西,5,西北西,4.5,,0,0,0,19.5
240,2024-02-26T03:59:00,2,西北西,5,西北西,4.5,,0,0,0,19.5
241,2024-02-26T04:00:00,2.1,西北西,5,西北西,4.5,,0,0,0,19.5
242,2024-02-26T04:01:00,2.2,西北西,5,西北西,4.5,,0,0,0,19.5
243,2024-02-26T04:02:00,2.1,西北西,5,西北西,4.4,,0,0,0,19.5
244,2024-02-26T04:03:00,2,西北西,5,西北西,4.3,,0,0,0,19.5
245,2024-02-26T04:04:00,1.8,西北西,3.8,西北西,4.3,,0,0,0,19.5
246,2024-02-26T04:05:00,1.6,西北西,3.8,西北西,4.2,,0,0,0,19.5
247,2024-02-26T04:06:00,1.5,西北西,3.5,西北西,4.3,,0,0,0,19.5
248,2024-02-26T04:07:00,1.4,北西,3.5,西北西,4.3,,0,0,0,19.5
249,2024-02-26T04:08:00,1.4,北西,3.5,西北西,4.3,,0,0,0,19.5
250,2024-02-26T04:09:00,1.3,西北西,3.5,西北西,4.3,,0,0,0,19.5
